User: anonymous   Login
Location: Chabot Space and Science Center
(37.8191°N, 122.1819°W)
Time: 14:22:57
(UTC-08:00)
Language:

ISS - Orbit

View from above orbital plane
View from above orbital plane
View from above satellite
View from above satellite

Ground track
Ground track

The orbit data is extracted from the following two-line orbital elements,

1 25544U 98067A   22028.54190878  .00007326  00000-0  13770-3 0  9995
2 25544  51.6449 308.1439 0006911  70.4247  91.9832 15.49680064323520
Epoch (UTC): 28 January 2022 13:00:20
Eccentricity: 0.0006911
inclination: 51.6449°
perigee height: 413 km
apogee height: 422 km
right ascension of ascending node: 308.1439°
argument of perigee: 70.4247°
revolutions per day: 15.49680064
mean anomaly at epoch: 91.9832°
orbit number at epoch: 32352

The dashed part of the orbit path shows where the satellite is in the earth's shadow,  

DLR